This is the latest recevied weather packets stored in our database for station/object K7LDN-13. If no packets are shown the sender has not sent any weather packets the latest 1 day(s).
| Time | Temp. | Humidity | Pressure | Rain* | Wind** | Luminosity | Snow |
|---|---|---|---|---|---|---|---|
| 1778025605 | 15° C | 47% | 1012.2 hPa | 0 mm | 1.34 m/s, 152° | 313 W/m² | - |
| 1778025302 | 15° C | 49% | 1012 hPa | 0 mm | 2.24 m/s, 153° | 337 W/m² | - |
| 1778024999 | 15° C | 47% | 1012.2 hPa | 0 mm | 1.79 m/s, 127° | 357 W/m² | - |
| 1778024696 | 15° C | 48% | 1012.3 hPa | 0 mm | 1.34 m/s, 160° | 376 W/m² | - |
| 1778024393 | 14.44° C | 50% | 1012.2 hPa | 0 mm | 2.24 m/s, 110° | 391 W/m² | - |
| 1778024090 | 14.44° C | 51% | 1012.4 hPa | 0 mm | 1.34 m/s, 147° | 406 W/m² | - |
| 1778023787 | 14.44° C | 49% | 1012.3 hPa | 0 mm | 2.24 m/s, 181° | 423 W/m² | - |
| 1778023486 | 14.44° C | 53% | 1012.4 hPa | 0 mm | 2.68 m/s, 148° | 445 W/m² | - |
| 1778023183 | 14.44° C | 54% | 1012.5 hPa | 0 mm | 0.89 m/s, 137° | 428 W/m² | - |
| 1778022880 | 13.89° C | 54% | 1012.7 hPa | 0 mm | 1.34 m/s, 184° | 166 W/m² | - |
| 1778022578 | 13.33° C | 54% | 1012.4 hPa | 0 mm | 1.34 m/s, 158° | 130 W/m² | - |
| 1778022275 | 13.33° C | 54% | 1012.5 hPa | 0 mm | 1.34 m/s, 124° | 180 W/m² | - |
| 1778021971 | 13.33° C | 54% | 1012.7 hPa | 0 mm | 1.79 m/s, 114° | 520 W/m² | - |
| 1778021669 | 13.89° C | 55% | 1012.8 hPa | 0 mm | 0.45 m/s, 259° | 296 W/m² | - |
| 1778021364 | 13.89° C | 55% | 1012.8 hPa | 0 mm | 1.79 m/s, 194° | 419 W/m² | - |
| 1778021062 | 12.78° C | 57% | 1012.8 hPa | 0 mm | 0.89 m/s, 187° | 288 W/m² | - |
| 1778020759 | 12.22° C | 59% | 1013 hPa | 0 mm | 2.24 m/s, 228° | 289 W/m² | - |
| 1778020456 | 12.22° C | 60% | 1012.7 hPa | 0 mm | 1.34 m/s, 214° | 218 W/m² | - |
| 1778020152 | 11.67° C | 63% | 1012.8 hPa | 0 mm | 0.89 m/s, 164° | 101 W/m² | - |
| 1778019848 | 11.67° C | 63% | 1013.2 hPa | 1.27 mm | 2.24 m/s, 147° | 100 W/m² | - |
| 1778019545 | 12.78° C | 59% | 1013.1 hPa | 0.51 mm | 2.68 m/s, 156° | 97 W/m² | - |
| 1778019242 | 12.78° C | 54% | 1013.2 hPa | 0 mm | 1.34 m/s, 149° | 110 W/m² | - |
| 1778018939 | 12.78° C | 54% | 1013.1 hPa | 0 mm | 3.13 m/s, 158° | 114 W/m² | - |
| 1778018636 | 13.33° C | 52% | 1013.3 hPa | 0 mm | 1.79 m/s, 128° | 96 W/m² | - |
| 1778018333 | 13.33° C | 48% | 1013.3 hPa | 0 mm | 2.24 m/s, 95° | 132 W/m² | - |
* Rain latest hour (hover to see other rain measurements)
** Current wind speed in m/s (hover to see current wind gust speed)